FENGYUN 1C DEB, 30717

Orbit data source: Space-Track

FENGYUN 1C DEB, 30717 is space debris in SSO originally from a launch on Mon, 10 May 1999 UTC launched from the Taiyaun Space Center, China (TSC). Fengyun 1C debris stems from the Chinese weather satellite Fengyun-1C, which was intentionally destroyed by a Chinese anti-satellite missile in 2007. This event dramatically increased the amount of space debris, with thousands of trackable fragments posing hazards to satellites and human spaceflight. The Fengyun 1C debris cloud has become a focal point in discussions about space sustainability and the need for international regulations to prevent the creation of new debris.

Loading next visibility...
Identifier
30717, 1999-025ASB
Orbit
SSO
Country
Flag of CNCN / PRC
Related business
Manufacturer
Unknown
Mission
Spacecraft
Bus & Motor
Unknown
Mass
Unknown
Launch date (UTC)
1999-05-10 (27 years ago)
Launch vehicle
Unknown
Launch site
Taiyaun Space Center, China (TSC)
Object type
Payload
Rocket body
Debris
Shape & HBR
Unknown shape, 0.1 m
Radar Cross Section
Medium (>0.1 m² and <1 m²)

Expand to show TLE details & history
Last TLE update: 16 hours ago

TLE from 16 hours ago
0 FENGYUN 1C DEB
1 30717U 99025ASB 26254.20144553  .00001665  00000-0  76604-3 0  9990
2 30717  99.0042 335.4301 0047669 196.8018 163.1581 14.21967170  3992
Epoch: 2026-09-11T04:50Z
TLE epoch observation values (Epoch: 2026-09-11T04:50:04.893Z)
Latitude
-0.00012°
Longitude
-87.31847°
Altitude
854.471 km
Speed
7.408 km/s
True Right ascension
22h 21m 43s
True Declination
0° 00' 00"
Sunlit
Object was in full shadow at epoch
Visualization orbit readout
Latitude
Unknown
Longitude
Unknown
Altitude
Unknown
Speed
Unknown
Apparent Right ascension
Unknown
Apparent Declination
Unknown
Sunlit
N/A
Visualization observer readout
Local Sidereal Time
13:32:30
Azimuth
Unknown
Elevation
Unknown
Doppler factor
Unknown
Orbital elements
Apogee altitude
850.171 km
Perigee altitude
781.585 km
Semi-major axis
7,194.015 km
Eccentricity
0.00477
Inclination
99.0042°
RAAN
335.4301°
Arg. of periapsis
196.8018°
True anomaly
163.31547°
Mean anomaly
163.1581°
Eccentric anomaly
163.23687°
Mean motion
3.55702 °/min
Orbital period
101.21 mins
BSTAR
0.00076604
Loading maneuver chart data...
Computing Atmospheric mass density...
Loading historical data...
Loading historical data...
Loading historical data...
Loading historical data...
Loading historical data...
Loading historical data...
Loading historical data...

Documentation

Showing up to 5 results
|